Location: Bois de la Silve
(44.4667°N, 6.7833°E)
Time: 04:43:08
(UTC+00:00)

ARIANE 5 R/B - Pass Details

Date: 14 July 2020
Orbit: 749 x 794 km, 98.6° (Epoch: 06 August)

Event Time Altitude Azimuth Distance (km) Brightness Sun altitude
Rises 02:51:12 0° 10° (N) 3,235 6.7 -10.7°
Reaches altitude 10° 02:53:32 10° 6° (N) 2,311 5.8 -10.4°
Maximum altitude 02:58:31 58° 289° (WNW) 902 2.7 -9.7°
Enters shadow 03:03:30 10° 211° (SSW) 2,312 4.4 -9.1°
